Miscellaneous Local Product
Issued by NWS Hastings, NE

Home | Current Version | Previous Version | Graphics & Text | Print | Product List | Glossary On
Versions: 1 2 3 4 5 6 7 8 9 10 11 12 13 14 15 16 17 18 19 20 21 22 23 24 25 26 27 28 29 30 31 32 33 34 35 36 37 38 39 40 41 42 43 44 45 46 47 48 49 50
000
AXUS43 KGID 270302
MISGRI

GID CWA HOURLY WEATHER ROUNDUP
NATIONAL WEATHER SERVICE HASTINGS NE
1000 PM CDT TUE MAY 26 2015

NOTE: "FAIR" INDICATES FEW OR NO CLOUDS BELOW 12,000 FEET WITH NO
SIGNIFICANT WEATHER AND/OR OBSTRUCTIONS TO VISIBILITY.

...SOUTH CENTRAL NEBRASKA...

CITY           SKY/WX    TMP DP  RH WIND       PRES   REMARKS
GRAND ISLAND   PTCLDY    58  49  72 W7        29.97R
HASTINGS       CLEAR     60  51  72 W5        29.97R
KEARNEY        CLEAR     64  46  52 W5        29.99R
ORD            CLEAR     59  48  67 W9        29.95R
YORK           CLEAR     59  54  82 CALM      29.94R
AURORA         PTCLDY    58  49  72 W7        29.95R
LEXINGTON      CLEAR     61  50  67 CALM      30.01R
HOLDREGE       CLEAR     62  47  59 CALM      29.99S
HEBRON         PTCLDY    62  51  65 CALM      29.94R

...NEBRASKA PANHANDLE...

CITY           SKY/WX    TMP DP  RH WIND       PRES   REMARKS
CHADRON        CLOUDY    59  52  77 S7        29.98R
ALLIANCE       PTCLDY    54  49  83 SE8       30.01R
SCOTTSBLUFF    PTCLDY    60  52  74 MISG      30.00R
SIDNEY         MOCLDY    55  51  86 SE7       30.04R

...WESTERN AND NORTH CENTRAL NEBRASKA...

CITY           SKY/WX    TMP DP  RH WIND       PRES   REMARKS
VALENTINE      CLEAR     60  50  69 W3        29.98R
AINSWORTH      CLEAR     63  52  67 CALM      29.98R
ONEILL         CLEAR     59  53  80 W5        29.93R
BROKEN BOW     CLEAR     57  51  80 CALM      29.99R
IMPERIAL       PTCLDY    59  51  75 E7        30.02R
NORTH PLATTE   CLEAR     57  51  80 CALM      30.01R
MCCOOK         CLEAR     63  49  60 SE6       30.01R

...EASTERN NEBRASKA...

CITY           SKY/WX    TMP DP  RH WIND       PRES   REMARKS
NORFOLK        CLEAR     56  51  84 SW7       29.91R
SO SIOUX CITY  MOCLDY    60  56  86 SW6       29.88R
TEKAMAH        CLEAR     61  55  81 N3        29.89R
COLUMBUS         N/A    N/A N/A N/A MISG        N/A
ALBION         CLEAR     60  51  72 NW3       29.93R
OMAHA EPPLEY   MOCLDY    61  56  83 CALM      29.87R
OFFUTT AFB     CLEAR     64  56  77 SW7       29.88R
MILLARD        CLEAR     61  57  87 CALM      29.88R
LINCOLN        CLEAR     64  55  72 W5        29.92R
NEBRASKA CITY  CLEAR     62  56  80 W6        29.90R
BEATRICE       CLEAR     63  55  75 W5        29.92R
FALLS CITY     PTCLDY    63  58  83 W6        29.91R

...NORTHERN KANSAS...

CITY           SKY/WX    TMP DP  RH WIND       PRES   REMARKS
GOODLAND       PTCLDY    57  54  89 E5        30.03R
HILL CITY      CLEAR     58  52  80 CALM      30.00R
NORTON         CLEAR     55  46  71 N5        30.00R
PHILLIPSBURG   CLEAR     66  52  59 N6        30.00R
SMITH CENTER   CLEAR     64  52  63 CALM      29.99R
HAYS           CLEAR     63  50  63 NE9       29.99R
RUSSELL        CLEAR     62  54  74 NE6       29.97R
CONCORDIA      MOCLDY    62  53  72 W6        29.97R
SALINA         PTCLDY    67  56  67 N3        29.97R
TOPEKA         PTCLDY    68  60  75 CALM      29.93R



USA.gov is the U.S. government's official web portal to all federal, state and local government web resources and services.